Newcastle, WY

1:04 AM MST on December 13, 2019 (GMT -0700)
Mondell

Weather History for KECS - October, 2019

Change the Weather History Date:

Monday, October 28, 2019

  Actual Average (KCUT) Record (KCUT)
Temperature  
Mean Temperature 19 °F -  
Max Temperature 30 °F 52 °F 74 °F (1983)
Min Temperature 8 °F 24 °F 8 °F (1963)
Degree Days  
Heating Degree Days 46    
Moisture  
Dew Point 9 °F    
Average Humidity 66    
Maximum Humidity 100    
Minimum Humidity 37    
Precipitation  
Precipitation 0.00 in - - ()
Sea Level Pressure  
Sea Level Pressure 30.02 in    
Wind  
Wind Speed 4 mph (NW)    
Max Wind Speed 25 mph    
Max Gust Speed 34 mph    
Visibility 9 miles    
Events Snow    
Averages and records for this station are not official NWS values.
T = Trace of Precipitation, MM = Missing Value Source: NWS Daily Summary

Daily Weather History Graph

Daily Weather History Graph

Search for Another Location

Airport or City:

Astronomy

Oct. 28, 2019 Rise Set
Actual Time 7:28 AM MDT 5:53 PM MDT
Civil Twilight 6:58 AM MDT 6:23 PM MDT
Nautical Twilight 6:24 AM MDT 6:56 PM MDT
Astronomical Twilight 5:51 AM MDT 7:30 PM MDT
Moon 7:51 AM MDT (10/28) 6:39 PM MDT (10/28)
Length of Visible Light 11h 24m
Length of Day
10h 25m
New Moon, 1% of the Moon is Illuminated
Oct 28
New Moon
Nov 4
First Quarter
Nov 12
Full
Nov 19
Last Quarter
Nov 26
New

Hourly Weather History & Observations

Time (MDT) Temp. Windchill Dew Point Humidity Pressure Visibility Wind Dir Wind Speed Gust Speed Precip Events Conditions
12:15 AM 12.2 °F 6.1 °F 5.0 °F 73% 30.15 in 10.0 mi North 3.5 mph - N/A   Clear
12:35 AM 12.2 °F 2.9 °F 5.0 °F 73% 30.15 in 10.0 mi NNW 5.8 mph - N/A   Clear
12:55 AM 12.2 °F 6.1 °F 5.0 °F 73% 30.15 in 10.0 mi NNW 3.5 mph - N/A   Clear
1:15 AM 12.2 °F 4.3 °F 6.8 °F 79% 30.15 in 10.0 mi NNW 4.6 mph - N/A   Mostly Cloudy
1:35 AM 14.0 °F 6.5 °F 6.8 °F 73% 30.15 in 10.0 mi NW 4.6 mph - N/A   Overcast
1:55 AM 14.0 °F 8.2 °F 8.6 °F 79% 30.15 in 10.0 mi SSW 3.5 mph - N/A   Overcast
2:15 AM 14.0 °F - 8.6 °F 79% 30.13 in 10.0 mi Calm Calm - N/A   Overcast
2:35 AM 14.0 °F 8.2 °F 8.6 °F 79% 30.11 in 10.0 mi NNW 3.5 mph - N/A   Overcast
2:55 AM 14.0 °F 6.5 °F 8.6 °F 79% 30.10 in 10.0 mi NNW 4.6 mph - N/A   Overcast
3:15 AM 12.2 °F 4.3 °F 6.8 °F 79% 30.09 in 10.0 mi NNW 4.6 mph - N/A   Scattered Clouds
3:35 AM 12.2 °F - 5.0 °F 73% 30.10 in 10.0 mi Calm Calm - N/A   Clear
3:55 AM 8.6 °F - 3.2 °F 79% 30.09 in 10.0 mi Calm Calm - N/A   Clear
4:15 AM 10.4 °F 0.8 °F 5.0 °F 79% 30.08 in 10.0 mi ESE 5.8 mph - N/A   Clear
4:35 AM 10.4 °F - 5.0 °F 79% 30.08 in 10.0 mi Calm Calm - N/A   Clear
4:55 AM 10.4 °F - 5.0 °F 79% 30.07 in 10.0 mi Calm Calm - N/A   Clear
5:15 AM 10.4 °F - 5.0 °F 79% 30.07 in 10.0 mi Calm Calm - N/A   Clear
5:35 AM 10.4 °F - 5.0 °F 79% 30.06 in 10.0 mi Calm Calm - N/A   Clear
5:55 AM 8.6 °F - 3.2 °F 79% 30.06 in 10.0 mi Calm Calm - N/A   Clear
6:15 AM 8.6 °F 2.0 °F 5.0 °F 85% 30.06 in 10.0 mi ESE 3.5 mph - N/A   Clear
6:35 AM 10.4 °F - 5.0 °F 79% 30.04 in 10.0 mi Calm Calm - N/A   Clear
6:55 AM 8.6 °F 2.0 °F 3.2 °F 79% 30.04 in 10.0 mi SSW 3.5 mph - N/A   Clear
7:15 AM 8.6 °F 2.0 °F 3.2 °F 79% 30.04 in 10.0 mi ESE 3.5 mph - N/A   Clear
7:35 AM 8.6 °F 2.0 °F 3.2 °F 79% 30.03 in 10.0 mi ESE 3.5 mph - N/A   Clear
7:55 AM 8.6 °F -1.3 °F 3.2 °F 79% 30.03 in 10.0 mi SE 5.8 mph - N/A   Clear
8:15 AM 8.6 °F - 3.2 °F 79% 30.04 in 10.0 mi Calm Calm - N/A   Clear
8:35 AM 12.2 °F - 6.8 °F 79% 30.04 in 10.0 mi Calm Calm - N/A   Clear
8:55 AM 15.8 °F - 6.8 °F 68% 30.03 in 10.0 mi Calm Calm - N/A   Clear
9:15 AM 15.8 °F - 6.8 °F 68% 30.03 in 10.0 mi Calm Calm - N/A   Clear
9:35 AM 17.6 °F - 6.8 °F 63% 30.02 in 10.0 mi Calm Calm - N/A   Clear
9:55 AM 19.4 °F - 8.6 °F 63% 30.02 in 10.0 mi Calm Calm - N/A   Mostly Cloudy
10:15 AM 19.4 °F 9.5 °F 10.4 °F 68% 30.00 in 10.0 mi South 8.1 mph - N/A   Scattered Clouds
10:35 AM 21.2 °F - 8.6 °F 58% 30.00 in 10.0 mi Calm Calm - N/A   Clear
10:55 AM 23.0 °F - 8.6 °F 54% 29.99 in 10.0 mi Calm Calm - N/A   Clear
11:15 AM 24.8 °F 19.1 °F 8.6 °F 50% 29.99 in 10.0 mi NW 4.6 mph - N/A   Clear
11:35 AM 26.6 °F 20.0 °F 8.6 °F 47% 29.99 in 10.0 mi NNW 5.8 mph - N/A   Clear
11:55 AM 26.6 °F 21.2 °F 5.0 °F 40% 29.98 in 10.0 mi NNW 4.6 mph - N/A   Clear
12:15 PM 28.4 °F 22.2 °F 6.8 °F 40% 29.98 in 10.0 mi WSW 5.8 mph - N/A   Clear
12:35 PM 28.4 °F 21.2 °F 6.8 °F 40% 29.97 in 10.0 mi South 6.9 mph - N/A   Clear
12:55 PM 28.4 °F 24.6 °F 8.6 °F 43% 29.95 in 10.0 mi South 3.5 mph - N/A   Clear
1:35 PM 30.2 °F 25.4 °F 8.6 °F 40% 29.94 in 10.0 mi South 4.6 mph - N/A   Clear
1:55 PM 30.2 °F 24.3 °F 8.6 °F 40% 29.93 in 10.0 mi South 5.8 mph - N/A   Clear
2:15 PM 30.2 °F 22.6 °F 6.8 °F 37% 29.93 in 10.0 mi SW 8.1 mph - N/A   Clear
2:35 PM 30.2 °F - 6.8 °F 37% 29.93 in 10.0 mi Calm Calm - N/A   Scattered Clouds
2:55 PM 30.2 °F - 6.8 °F 37% 29.93 in 10.0 mi Calm Calm - N/A   Mostly Cloudy
3:15 PM 30.2 °F 24.3 °F 8.6 °F 40% 29.93 in 10.0 mi ESE 5.8 mph - N/A   Overcast
3:35 PM 30.2 °F 26.7 °F 6.8 °F 37% 29.93 in 10.0 mi South 3.5 mph - N/A   Overcast
3:55 PM 30.2 °F - 6.8 °F 37% 29.93 in 10.0 mi Calm Calm - N/A   Overcast
4:15 PM 30.2 °F 25.4 °F 8.6 °F 40% 29.93 in 10.0 mi SSE 4.6 mph - N/A   Overcast
4:35 PM 30.2 °F 24.3 °F 8.6 °F 40% 29.93 in 10.0 mi SSE 5.8 mph - N/A   Overcast
4:55 PM 28.4 °F 21.2 °F 10.4 °F 47% 29.93 in 10.0 mi SSE 6.9 mph - N/A   Overcast
5:15 PM 28.4 °F - 10.4 °F 47% 29.94 in 10.0 mi Calm Calm - N/A   Overcast
5:35 PM 28.4 °F - 10.4 °F 47% 29.94 in 10.0 mi Calm Calm - N/A   Overcast
5:55 PM 28.4 °F 21.2 °F 12.2 °F 51% 29.94 in 10.0 mi WNW 6.9 mph - N/A   Overcast
6:15 PM 26.6 °F 16.8 °F 14.0 °F 59% 29.95 in 10.0 mi NW 10.4 mph - N/A   Overcast
6:35 PM 24.8 °F 16.9 °F 19.4 °F 80% 29.97 in 2.5 mi NNW 6.9 mph - N/A Snow Light Snow
6:55 PM 24.8 °F 15.3 °F 21.2 °F 86% 29.97 in 3.0 mi NW 9.2 mph - N/A Snow Light Snow
7:15 PM 23.0 °F 13.1 °F 19.4 °F 86% 29.98 in 2.5 mi NNW 9.2 mph - N/A Snow Light Snow
7:35 PM 23.0 °F 13.1 °F 19.4 °F 86% 29.99 in 2.5 mi NW 9.2 mph - N/A Snow Light Snow
7:55 PM 23.0 °F 15.8 °F 21.2 °F 93% 30.00 in 2.5 mi NNW 5.8 mph - N/A Snow Light Snow
8:15 PM 23.0 °F 17.0 °F 23.0 °F 100% 30.00 in 1.8 mi NW 4.6 mph - N/A Snow Light Snow
8:35 PM 23.0 °F 14.7 °F 21.2 °F 93% 30.00 in 1.5 mi NW 6.9 mph - N/A Snow Light Snow
8:55 PM 23.0 °F 11.1 °F 19.4 °F 86% 30.01 in 4.0 mi NW 12.7 mph - N/A Snow Light Snow
9:15 PM 23.0 °F 10.1 °F 21.2 °F 93% 30.02 in 4.0 mi NW 15.0 mph 23.0 mph N/A Snow Light Snow
9:55 PM 21.2 °F 7.8 °F 12.2 °F 68% 30.04 in 10.0 mi NNW 15.0 mph 25.3 mph N/A   Overcast
10:15 PM 19.4 °F 5.5 °F 10.4 °F 68% 30.06 in 10.0 mi NNW 15.0 mph 21.9 mph N/A   Overcast
10:35 PM 19.4 °F 4.5 °F 8.6 °F 63% 30.07 in 10.0 mi North 17.3 mph 26.5 mph N/A   Overcast
10:55 PM 19.4 °F 4.5 °F 8.6 °F 63% 30.08 in 10.0 mi NNW 17.3 mph 24.2 mph N/A   Overcast
11:15 PM 17.6 °F 1.3 °F 8.6 °F 68% 30.09 in 10.0 mi NNW 19.6 mph 26.5 mph N/A   Overcast
11:35 PM 17.6 °F 0.1 °F 6.8 °F 63% 30.10 in 10.0 mi NNW 23.0 mph 29.9 mph N/A   Overcast
11:55 PM 15.8 °F -3.1 °F 5.0 °F 62% 30.10 in 10.0 mi North 25.3 mph 34.5 mph N/A   Overcast